Previsão horária em Barra

Hoje, 30 Setembro, Quarta-feira

Tempo Temperatura Precipitação Vento Pressão Humidade
00:00 +20°C° 0 mm 4 m/s 751 mmHg 85%
01:00 +20°C° 0 mm 4 m/s 751 mmHg 85%
02:00 +20°C° 0.1 mm 4 m/s 751 mmHg 85%
03:00 +20°C° 0.1 mm 4 m/s 751 mmHg 84%
04:00 +20°C° 0 mm 4 m/s 750 mmHg 84%
05:00 +20°C° 0.1 mm 3 m/s 750 mmHg 82%
06:00 +21°C° 0.1 mm 3 m/s 751 mmHg 81%
07:00 +21°C° 0.1 mm 3 m/s 751 mmHg 79%
08:00 +24°C° 0.1 mm 3 m/s 751 mmHg 73%
09:00 +25°C° 0.1 mm 4 m/s 751 mmHg 67%
10:00 +27°C° 0.1 mm 4 m/s 751 mmHg 61%
11:00 +27°C° 0.1 mm 4 m/s 751 mmHg 61%
12:00 +27°C° 0.1 mm 4 m/s 750 mmHg 61%
13:00 +27°C° 0.1 mm 4 m/s 749 mmHg 62%
14:00 +26°C° 0.1 mm 4 m/s 749 mmHg 65%
15:00 +25°C° 0.1 mm 4 m/s 749 mmHg 68%
16:00 +25°C° 0.1 mm 4 m/s 748 mmHg 71%
17:00 +24°C° 0 mm 3 m/s 749 mmHg 76%
18:00 +22°C° 0 mm 3 m/s 749 mmHg 81%
19:00 +21°C° 0 mm 3 m/s 749 mmHg 86%
20:00 +20°C° 0 mm 3 m/s 750 mmHg 86%
21:00 +20°C° 0 mm 3 m/s 751 mmHg 86%
22:00 +20°C° 0 mm 3 m/s 751 mmHg 85%
23:00 +20°C° 0 mm 3 m/s 751 mmHg 86%

Amanhã, 1 Outubro, Quinta-feira

Tempo Temperatura Precipitação Vento Pressão Humidade
00:00 +20°C° 0 mm 3 m/s 751 mmHg 86%
01:00 +20°C° 0 mm 3 m/s 750 mmHg 86%
02:00 +20°C° 0 mm 2 m/s 750 mmHg 85%
03:00 +20°C° 0 mm 2 m/s 750 mmHg 85%
04:00 +20°C° 0 mm 2 m/s 750 mmHg 85%
05:00 +20°C° 0 mm 2 m/s 750 mmHg 82%
06:00 +21°C° 0 mm 2 m/s 751 mmHg 80%
07:00 +23°C° 0 mm 2 m/s 751 mmHg 78%
08:00 +24°C° 0 mm 2 m/s 751 mmHg 70%
09:00 +26°C° 0 mm 2 m/s 751 mmHg 63%
10:00 +28°C° 0 mm 2 m/s 752 mmHg 56%
11:00 +28°C° 0 mm 3 m/s 751 mmHg 55%
12:00 +28°C° 0 mm 3 m/s 750 mmHg 54%
13:00 +29°C° 0 mm 3 m/s 750 mmHg 54%
14:00 +28°C° 0 mm 3 m/s 750 mmHg 56%
15:00 +28°C° 0 mm 3 m/s 749 mmHg 58%
16:00 +27°C° 0 mm 3 m/s 749 mmHg 60%
17:00 +26°C° 0 mm 3 m/s 750 mmHg 67%
18:00 +24°C° 0 mm 2 m/s 750 mmHg 75%
19:00 +21°C° 0 mm 2 m/s 751 mmHg 82%
20:00 +21°C° 0 mm 2 m/s 751 mmHg 83%
21:00 +20°C° 0 mm 2 m/s 752 mmHg 85%
22:00 +20°C° 0 mm 2 m/s 752 mmHg 86%
23:00 +20°C° 0 mm 2 m/s 752 mmHg 85%

Depois de amanhã, 2 Outubro, Sexta-feira

Tempo Temperatura Precipitação Vento Pressão Humidade
00:00 +21°C° 0 mm 2 m/s 752 mmHg 84%
01:00 +21°C° 0 mm 3 m/s 752 mmHg 83%
02:00 +21°C° 0.1 mm 3 m/s 752 mmHg 83%
03:00 +21°C° 0.1 mm 3 m/s 752 mmHg 83%
04:00 +21°C° 0.1 mm 3 m/s 752 mmHg 83%
05:00 +22°C° 0.1 mm 3 m/s 752 mmHg 83%
06:00 +22°C° 0.1 mm 3 m/s 752 mmHg 82%
07:00 +22°C° 0.1 mm 3 m/s 752 mmHg 82%
08:00 +25°C° 0.1 mm 4 m/s 752 mmHg 74%
09:00 +27°C° 0.1 mm 5 m/s 753 mmHg 67%
10:00 +28°C° 0.1 mm 5 m/s 753 mmHg 59%
11:00 +28°C° 0 mm 5 m/s 752 mmHg 58%
12:00 +29°C° 0 mm 6 m/s 752 mmHg 56%
13:00 +29°C° 0 mm 6 m/s 752 mmHg 54%
14:00 +28°C° 0 mm 6 m/s 751 mmHg 56%
15:00 +28°C° 0 mm 6 m/s 751 mmHg 57%
16:00 +27°C° 0 mm 6 m/s 751 mmHg 58%
17:00 +26°C° 0 mm 5 m/s 752 mmHg 65%
18:00 +23°C° 0 mm 5 m/s 752 mmHg 73%
19:00 +22°C° 0 mm 5 m/s 752 mmHg 80%
20:00 +22°C° 0 mm 5 m/s 753 mmHg 81%
21:00 +22°C° 0 mm 5 m/s 753 mmHg 83%
22:00 +21°C° 0 mm 6 m/s 754 mmHg 85%
23:00 +22°C° 0.1 mm 6 m/s 753 mmHg 82%

3 Outubro, Sábado

Tempo Temperatura Precipitação Vento Pressão Humidade
00:00 +22°C° 0.1 mm 6 m/s 753 mmHg 80%
01:00 +22°C° 0.1 mm 6 m/s 752 mmHg 78%
02:00 +22°C° 0.2 mm 6 m/s 752 mmHg 78%
03:00 +22°C° 0.2 mm 6 m/s 752 mmHg 79%
04:00 +22°C° 0.2 mm 6 m/s 752 mmHg 79%
05:00 +22°C° 0.2 mm 6 m/s 752 mmHg 79%
06:00 +22°C° 0.2 mm 6 m/s 752 mmHg 78%
07:00 +22°C° 0.2 mm 6 m/s 753 mmHg 78%
08:00 +22°C° 0.1 mm 6 m/s 753 mmHg 75%
09:00 +23°C° 0.1 mm 6 m/s 753 mmHg 71%
10:00 +24°C° 0.1 mm 6 m/s 753 mmHg 68%
11:00 +24°C° 0.1 mm 7 m/s 752 mmHg 64%
12:00 +26°C° 0.1 mm 7 m/s 752 mmHg 61%
13:00 +27°C° 0.1 mm 7 m/s 751 mmHg 57%
14:00 +27°C° 0.1 mm 7 m/s 751 mmHg 60%
15:00 +26°C° 0.1 mm 7 m/s 751 mmHg 63%
16:00 +24°C° 0.1 mm 6 m/s 751 mmHg 65%
17:00 +23°C° 0.1 mm 6 m/s 751 mmHg 70%
18:00 +23°C° 0.1 mm 6 m/s 751 mmHg 74%
19:00 +22°C° 0.1 mm 6 m/s 752 mmHg 79%
20:00 +21°C° 0.1 mm 6 m/s 752 mmHg 81%
21:00 +21°C° 0.1 mm 6 m/s 752 mmHg 82%
22:00 +21°C° 0.1 mm 6 m/s 752 mmHg 84%
23:00 +21°C° 0.1 mm 6 m/s 752 mmHg 83%

4 Outubro, Domingo

Tempo Temperatura Precipitação Vento Pressão Humidade
00:00 +21°C° 0.1 mm 5 m/s 751 mmHg 83%
01:00 +21°C° 0.1 mm 5 m/s 751 mmHg 83%
02:00 +21°C° 0.2 mm 5 m/s 751 mmHg 85%
03:00 +21°C° 0.2 mm 5 m/s 750 mmHg 86%
04:00 +20°C° 0.2 mm 4 m/s 750 mmHg 88%
05:00 +21°C° 0.4 mm 5 m/s 750 mmHg 88%
06:00 +22°C° 0.4 mm 5 m/s 751 mmHg 87%
07:00 +22°C° 0.4 mm 6 m/s 751 mmHg 86%
08:00 +23°C° 0.2 mm 6 m/s 751 mmHg 79%
09:00 +26°C° 0.2 mm 6 m/s 751 mmHg 72%
10:00 +27°C° 0.2 mm 7 m/s 751 mmHg 65%
11:00 +27°C° 0.2 mm 6 m/s 751 mmHg 65%
12:00 +26°C° 0.2 mm 6 m/s 751 mmHg 65%
13:00 +26°C° 0.2 mm 6 m/s 750 mmHg 66%
14:00 +26°C° 0.2 mm 5 m/s 750 mmHg 67%
15:00 +26°C° 0.2 mm 5 m/s 750 mmHg 68%
16:00 +26°C° 0.2 mm 5 m/s 750 mmHg 69%
17:00 +25°C° 0.2 mm 5 m/s 750 mmHg 75%
18:00 +22°C° 0.2 mm 4 m/s 750 mmHg 81%
19:00 +21°C° 0.2 mm 4 m/s 751 mmHg 87%
20:00 +21°C° 0.2 mm 4 m/s 751 mmHg 88%
21:00 +21°C° 0.2 mm 4 m/s 751 mmHg 89%
22:00 +21°C° 0.2 mm 4 m/s 752 mmHg 89%
23:00 +20°C° 0.1 mm 3 m/s 751 mmHg 90%

5 Outubro, Segunda-feira

Tempo Temperatura Precipitação Vento Pressão Humidade
00:00 +20°C° 0.1 mm 3 m/s 750 mmHg 91%
01:00 +20°C° 0.1 mm 3 m/s 750 mmHg 92%
02:00 +20°C° 0.1 mm 3 m/s 750 mmHg 92%
03:00 +20°C° 0.1 mm 3 m/s 749 mmHg 93%
04:00 +20°C° 0.1 mm 3 m/s 749 mmHg 93%
05:00 +20°C° 0.2 mm 3 m/s 750 mmHg 92%
06:00 +21°C° 0.2 mm 3 m/s 750 mmHg 91%
07:00 +22°C° 0.2 mm 3 m/s 750 mmHg 89%
08:00 +24°C° 0.3 mm 3 m/s 750 mmHg 85%
09:00 +25°C° 0.3 mm 4 m/s 750 mmHg 81%
10:00 +26°C° 0.3 mm 4 m/s 750 mmHg 77%
11:00 +26°C° 0.2 mm 4 m/s 750 mmHg 75%
12:00 +26°C° 0.2 mm 4 m/s 750 mmHg 73%
13:00 +27°C° 0.2 mm 4 m/s 749 mmHg 71%
14:00 +27°C° 0.3 mm 4 m/s 749 mmHg 73%
15:00 +26°C° 0.3 mm 4 m/s 749 mmHg 75%
16:00 +26°C° 0.3 mm 4 m/s 748 mmHg 77%
17:00 +25°C° 0.4 mm 4 m/s 749 mmHg 81%
18:00 +23°C° 0.4 mm 4 m/s 750 mmHg 86%
19:00 +22°C° 0.4 mm 4 m/s 750 mmHg 90%
20:00 +22°C° 0.7 mm 4 m/s 750 mmHg 91%
21:00 +22°C° 0.7 mm 4 m/s 751 mmHg 92%
22:00 +22°C° 0.7 mm 5 m/s 751 mmHg 92%
23:00 +22°C° 0.7 mm 4 m/s 751 mmHg 92%
Mostrar mais